#timestamp,LO_Frequency,Hit,StdDev 
1458752415.2,286047005.1,N
1458752435.0,286047004.0,N
1458752435.9,286047004.0,N
1458752455.8,286047001.8,N
1458752475.6,286047000.3,N
1458752495.4,286047002.2,N
1458752515.3,286047001.9,N
1458752535.1,286047004.0,N
1458752536.0,286047004.0,N
1458752555.8,286047003.8,N
1458752575.6,286047003.3,N
1458752595.5,286047007.2,N
1458752615.3,286047009.2,N
1458752635.1,286047006.9,N
1458752655.9,286047005.5,N
1458752675.7,286047004.6,N
1458752695.5,286047007.2,N
1458752715.4,286047006.7,N
1458752735.2,286047006.6,N
1458752755.0,286047008.9,Y
1458752755.9,286047008.9,P
1458752775.8,286047001.4,N
1458752795.6,286047003.3,N
1458752815.4,286047007.5,N
1458752835.3,286047004.4,N
1458752855.1,286047003.5,N
1458752856.0,286047003.5,N
1458752875.8,286047005.9,N
1458752895.7,286047002.5,N
1458752915.5,286047002.4,N
1458752935.3,286047001.5,N
1458752955.2,286046999.9,N
1458752975.9,286047001.2,N
1458752995.7,286046999.8,N
1458753015.5,286047001.9,N
1458753035.4,286047001.4,N
1458753055.2,286047001.9,N
1458753075.0,286046998.6,N
1458753075.9,286046998.6,N
1458753095.8,286046998.1,N
1458753115.6,286047001.0,N
1458753135.4,286046998.2,N
1458753155.3,286046996.8,N
1458753175.1,286046998.3,N
1458753176.0,286046998.3,N
1458753195.8,286047001.5,N
1458753215.7,286046999.7,N
1458753235.5,286047003.2,N
1458753255.3,286047005.7,N
1458753275.2,286047003.9,N
1458753295.9,286047004.4,N
1458753315.7,286047001.9,N
1458753335.5,286046999.7,N
1458753355.4,286047002.4,N
1458753375.2,286047001.8,N
1458753395.0,286047004.0,N
1458753395.9,286047004.0,N
1458753415.8,286047001.7,N
1458753435.6,286047003.2,N
1458753455.4,286047002.3,N
1458753475.3,286047002.3,N
1458753495.1,286047000.0,N
1458753515.8,286047002.3,N
1458753535.7,286047003.1,N
1458753555.5,286047003.8,N
1458753575.3,286047004.1,N
1458753595.2,286047003.4,N
1458753615.9,286047005.4,N
1458753635.7,286047004.3,N
1458753655.5,286047003.0,N
1458753675.4,286047007.4,Y
1458753695.2,286047003.7,P
1458753715.1,286047002.9,P
1458753716.0,286047002.9,P
1458753735.8,286047003.3,Y
1458753755.6,286047000.1,P
1458753775.5,286046998.8,N
1458753795.3,286046999.0,N
1458753815.1,286046997.9,N
1458753835.9,286046994.2,Y
1458753855.7,286046995.0,P
1458753875.5,286046995.7,N
1458753895.4,286046993.7,P
1458753915.2,286046993.3,N
1458753935.0,286047002.7,N
1458753935.9,286047002.7,N
1458753955.8,286046999.7,N
1458753975.6,286047002.0,N
1458753995.4,286046999.1,N
1458754015.2,286046999.2,N
1458754035.1,286047000.1,N
1458754036.0,286047000.1,N
1458754055.8,286046996.6,N
1458754075.6,286046999.5,N
1458754095.5,286046998.3,N
1458754115.3,286046998.1,N
1458754135.1,286046995.4,N
1458754155.9,286046994.4,N
1458754175.7,286046996.2,N
1458754195.5,286046994.0,N
1458754215.4,286046993.4,N
1458754235.2,286046997.3,N
1458754255.0,286046999.4,N
1458754255.9,286046999.4,N
1458754275.8,286046996.4,N
1458754295.6,286046994.9,N
1458754315.4,286046997.2,N
1458754335.2,286046996.1,N
1458754355.1,286046995.1,N
1458754356.0,286046995.1,N
1458754375.8,286046995.7,N
1458754395.6,286046994.6,N
1458754415.5,286046995.2,N
1458754435.3,286046997.5,N
1458754455.1,286046997.0,N
1458754475.9,286046999.1,N
1458754495.7,286046999.0,N
1458754515.5,286046998.1,N
1458754535.4,286046995.0,N
1458754555.2,286046996.4,N
1458754575.0,286046994.6,N
1458754575.9,286046994.6,N
1458754595.8,286046993.9,Y
1458754615.6,286046995.0,P
1458754635.4,286046993.8,P
1458754655.3,286046995.0,P
1458754675.1,286047001.2,N
1458754676.0,286047001.2,N
1458754695.8,286046997.7,N
1458754715.7,286046994.7,N
1458754735.5,286046991.0,Y
1458754755.3,286046994.2,P
1458754775.2,286046996.0,P
1458754795.9,286046990.4,P
1458754815.7,286046991.5,Y
1458754835.6,286046999.0,P
1458754855.4,286047002.2,N
1458754875.2,286046998.7,N
1458754895.1,286047001.6,N
1458754896.0,286047001.6,N
1458754915.8,286047002.6,N
1458754935.6,286047004.1,N
1458754955.4,286047000.5,N
1458754975.3,286047001.9,N
1458754995.1,286047000.2,N
1458755015.8,286047002.0,N
1458755035.7,286047002.3,N
1458755055.5,286047005.8,N
1458755075.3,286047007.3,N
1458755095.2,286047002.9,N
1458755115.9,286047005.5,N
1458755135.7,286047006.9,N
1458755155.6,286047006.5,N
1458755175.4,286047006.2,N
1458755195.2,286047010.8,Y
1458755215.1,286047007.6,P
1458755216.0,286047007.6,P
1458755235.8,286047007.4,P
1458755255.6,286047009.2,Y
1458755275.5,286046999.7,P
1458755295.3,286047003.6,N
1458755315.1,286047003.9,N
1458755335.9,286047000.9,N
1458755355.7,286047001.6,N
1458755375.5,286047003.1,N
1458755395.4,286047004.4,N
1458755415.2,286047003.9,N
1458755435.0,286047003.8,N
1458755435.9,286047003.8,N
1458755455.8,286047002.8,N
1458755475.6,286047001.8,N
1458755495.4,286047007.1,Y
1458755515.3,286047003.1,P
1458755535.1,286047004.9,P
1458755536.0,286047004.9,P
1458755555.8,286047005.8,Y
1458755575.7,286047002.1,P
1458755595.5,286046998.4,N
1458755615.3,286047002.1,N
1458755635.2,286047005.4,N
1458755655.9,286047007.1,Y
1458755675.7,286046999.7,P
1458755695.6,286047000.4,N
1458755715.4,286047000.3,N
1458755735.2,286047000.9,N
1458755755.0,286047002.6,N
1458755756.0,286047002.6,N
1458755775.8,286046999.8,N
1458755795.6,286047001.4,N
1458755815.4,286047001.6,N
1458755835.3,286047001.6,N
1458755855.1,286047002.4,N
1458755875.8,286047000.0,N
1458755895.7,286046998.6,N
1458755915.5,286047000.4,N
1458755935.3,286046998.9,N
1458755955.2,286047000.8,N
1458755975.9,286046999.1,N
1458755995.7,286046998.9,N
